Location: Newark
(52.2090°N, 4.1550°W)
Time: 11:55:31
(UTC+00:00)

Transit 2A - Pass Details

Date: 28 October 2019
Orbit: 601 x 957 km, 66.7° (Epoch: 21 November)

Event Time Altitude Azimuth Distance (km) Brightness Sun altitude
Rises 20:59:00 0° 284° (WNW) 3,111 10.0 -36.9°
Reaches altitude 10° 21:02:19 10° 306° (NW) 2,123 9.0 -37.3°
Enters shadow 21:04:14 15° 329° (NNW) 1,777 8.4 -37.6°
